Overview Statistics Trail Chart Weather Telemetry Raw packets
 

This is the latest recevied weather packets stored in our database for station/object K6CEG. If no packets are shown the sender has not sent any weather packets the latest 10 day(s).

<< 33 34 35 36 37 38 39 >>
Time Temp. Humidity Pressure Rain* Wind** Luminosity Snow
1788455477 24.44° C 55% 1016.7 hPa 0 mm - 559 W/m² -
1788455175 25° C 55% 1016.7 hPa 0 mm - 553 W/m² -
1788454871 24.44° C 56% 1016.6 hPa 0 mm - 560 W/m² -
1788454568 24.44° C 56% 1016.7 hPa 0 mm - 546 W/m² -
1788454264 24.44° C 57% 1016.5 hPa 0 mm - 518 W/m² -
1788453958 23.89° C 58% 1016.4 hPa 0 mm - 492 W/m² -
1788453655 24.44° C 57% 1016.7 hPa 0 mm - 441 W/m² -
1788453354 23.89° C 57% 1016.5 hPa 0 mm - 436 W/m² -
1788453051 23.33° C 59% 1016.7 hPa 0 mm - 429 W/m² -
1788452747 22.78° C 60% 1016.7 hPa 0 mm - 121 W/m² -
1788452443 22.78° C 60% 1016.7 hPa 0 mm - 337 W/m² -
1788452138 22.78° C 61% 1016.5 hPa 0 mm - 300 W/m² -
1788451833 23.33° C 60% 1016.7 hPa 0 mm - 303 W/m² -
1788451532 23.33° C 60% 1016.6 hPa 0 mm - 67 W/m² -
1788451227 22.78° C 62% 1016.6 hPa 0 mm - 265 W/m² -
1788450926 22.78° C 61% 1016.4 hPa 0 mm - 73 W/m² -
1788450622 22.22° C 62% 1016.6 hPa 0 mm - 209 W/m² -
1788450318 22.22° C 62% 1016.7 hPa 0 mm - 66 W/m² -
1788450014 21.67° C 63% 1016.7 hPa 0 mm - 198 W/m² -
1788449709 22.22° C 62% 1016.6 hPa 0 mm - 203 W/m² -
1788449405 22.22° C 63% 1016.6 hPa 0 mm - 189 W/m² -
1788449101 21.67° C 64% 1016.7 hPa 0 mm - 167 W/m² -
1788448797 21.11° C 65% 1016.6 hPa 0 mm - 161 W/m² -
1788448496 21.11° C 64% 1016.5 hPa 0 mm - 143 W/m² -
1788448191 21.11° C 65% 1016.7 hPa 0 mm - 119 W/m² -

* Rain latest hour (hover to see other rain measurements)
** Current wind speed in m/s (hover to see current wind gust speed)